Weather History for Winter Haven, FL

Change the Weather History Date:

Saturday, August 17, 2013

  Actual Average Record
Temperature  
Mean Temperature 85 °F -  
Max Temperature 93 °F 92 °F 97 °F (2005)
Min Temperature 77 °F 73 °F 68 °F (1962)
Cooling Degree Days 20    
Growing Degree Days 35 (Base 50)    
Moisture  
Dew Point 74 °F    
Average Humidity 79    
Maximum Humidity 96    
Minimum Humidity 47    
Precipitation  
Precipitation 0.05 in - - ()
Sea Level Pressure  
Sea Level Pressure 30.06 in    
Wind  
Wind Speed 4 mph (ESE)    
Max Wind Speed 15 mph    
Max Gust Speed -    
Visibility 10 miles    
Events Rain    
Averages and records for this station are not official NWS values.
T = Trace of Precipitation, MM = Missing Value Source: NWS Daily Summary

Daily Weather History Graph

Daily Weather History Graph

Search for Another Location

Airport:

Trip Planner

Search our weather history database for the weather conditions in past years. The results will help you decide how hot, cold, wet, or windy it might be!

Date:

Astronomy

Aug. 17, 2013 Rise Set
Actual Time 6:58 AM EDT 8:03 PM EDT
Civil Twilight 6:33 AM EDT 8:27 PM EDT
Nautical Twilight 6:04 AM EDT 8:56 PM EDT
Astronomical Twilight 5:34 AM EDT 9:26 PM EDT
Moon 5:09 PM EDT (8/17) 3:09 AM EDT (8/17)
Length of Visible Light 13h 54m
Length of Day
13h 05m
Waxing Gibbous, 84% of the Moon is Illuminated
Aug 17
Waxing Gibbous
Aug 20
Full
Aug 28
Last Quarter
Sep 5
New
Sep 12
First Quarter

Hourly Weather History & Observations

Time (EDT) Temp. Heat Index Dew Point Humidity Pressure Visibility Wind Dir Wind Speed Gust Speed Precip Events Conditions
12:53 AM 77.0 °F - 73.9 °F 90% 30.07 in 10.0 mi Calm Calm - N/A   Mostly Cloudy
1:06 AM 78.1 °F - 73.0 °F 84% 30.08 in 10.0 mi Calm Calm - N/A   Mostly Cloudy
1:53 AM 78.1 °F - 73.9 °F 87% 30.07 in 10.0 mi Calm Calm - N/A   Scattered Clouds
2:45 AM 77.0 °F - 75.9 °F 96% 30.06 in 10.0 mi NNW 4.6 mph - 0.00 in   Partly Cloudy
2:53 AM 77.0 °F - 75.0 °F 94% 30.05 in 10.0 mi North 4.6 mph - 0.00 in   Partly Cloudy
3:01 AM 77.0 °F - 75.9 °F 96% 30.06 in 10.0 mi NNW 4.6 mph - N/A   Partly Cloudy
3:53 AM 77.0 °F - 75.0 °F 94% 30.04 in 10.0 mi NE 5.8 mph - N/A   Clear
4:53 AM 77.0 °F - 75.0 °F 94% 30.03 in 10.0 mi Calm Calm - N/A   Clear
5:53 AM 78.1 °F - 75.9 °F 93% 30.03 in 10.0 mi ESE 4.6 mph - N/A   Clear
6:53 AM 78.1 °F - 73.9 °F 87% 30.05 in 10.0 mi ESE 4.6 mph - N/A   Clear
7:53 AM 78.1 °F - 75.0 °F 90% 30.07 in 10.0 mi ESE 3.5 mph - N/A   Clear
8:53 AM 82.0 °F 89.4 °F 75.9 °F 82% 30.08 in 10.0 mi SSW 3.5 mph - N/A   Clear
9:53 AM 84.9 °F 94.1 °F 75.9 °F 74% 30.07 in 10.0 mi SSE 8.1 mph - N/A   Scattered Clouds
10:05 AM 84.9 °F 94.1 °F 75.9 °F 74% 30.09 in 10.0 mi South 8.1 mph - N/A   Mostly Cloudy
10:16 AM 84.0 °F 92.6 °F 75.9 °F 76% 30.09 in 10.0 mi South 8.1 mph - N/A   Scattered Clouds
10:53 AM 86.0 °F 95.1 °F 75.0 °F 70% 30.08 in 10.0 mi SE 9.2 mph - N/A   Scattered Clouds
11:09 AM 86.0 °F 93.8 °F 73.9 °F 67% 30.09 in 10.0 mi SE 6.9 mph - N/A   Mostly Cloudy
11:19 AM 88.0 °F 97.5 °F 75.0 °F 65% 30.09 in 10.0 mi SE 6.9 mph - N/A   Mostly Cloudy
11:53 AM 88.0 °F 96.5 °F 73.9 °F 63% 30.08 in 10.0 mi South 6.9 mph - N/A   Mostly Cloudy
12:00 PM 88.0 °F 96.5 °F 73.9 °F 63% 30.09 in 10.0 mi South 9.2 mph - N/A   Mostly Cloudy
12:11 PM 89.1 °F 98.0 °F 73.9 °F 61% 30.08 in 10.0 mi Variable 5.8 mph - N/A   Mostly Cloudy
12:53 PM 90.0 °F 100.2 °F 75.0 °F 61% 30.06 in 10.0 mi Variable 5.8 mph - N/A   Partly Cloudy
1:53 PM 93.9 °F 100.8 °F 71.1 °F 47% 30.04 in 10.0 mi SE 6.9 mph - N/A   Scattered Clouds
2:53 PM 91.9 °F 97.4 °F 70.0 °F 48% 30.02 in 10.0 mi Variable 6.9 mph - N/A   Mostly Cloudy
3:53 PM 88.0 °F 94.7 °F 72.0 °F 59% 30.01 in 10.0 mi East 13.8 mph - N/A   Partly Cloudy
4:53 PM 81.0 °F 86.7 °F 75.0 °F 82% 30.02 in 10.0 mi West 5.8 mph - 0.00 in Rain Light Rain
5:53 PM 82.0 °F 86.3 °F 71.1 °F 69% 30.03 in 10.0 mi East 15.0 mph - 0.00 in   Partly Cloudy
6:28 PM 79.0 °F - 73.9 °F 84% 30.04 in 2.5 mi ESE 6.9 mph - 0.05 in Rain Light Rain
6:35 PM 79.0 °F - 75.0 °F 88% 30.05 in 9.0 mi SSE 5.8 mph - 0.05 in Rain Light Rain
6:53 PM 78.1 °F - 75.0 °F 90% 30.05 in 10.0 mi WSW 5.8 mph - 0.05 in   Overcast
7:53 PM 79.0 °F - 75.0 °F 88% 30.09 in 10.0 mi NE 4.6 mph - N/A   Clear
8:53 PM 78.1 °F - 73.9 °F 87% 30.08 in 10.0 mi ENE 4.6 mph - N/A   Clear
9:53 PM 78.1 °F - 75.0 °F 90% 30.10 in 10.0 mi NE 5.8 mph - N/A   Clear
10:53 PM 78.1 °F - 75.0 °F 90% 30.10 in 10.0 mi NE 5.8 mph - N/A   Clear
11:53 PM 79.0 °F - 75.9 °F 90% 30.10 in 10.0 mi East 5.8 mph - N/A   Clear